[[{"header":{"parameterUnit":"m.s-1","parameterCategory":1,"la1":30.2991,"la2":30.254,"lo1":-89.0895,"lo2":-89.0444,"dy":0.0017,"dx":0.0017,"nx":28,"ny":28,"refTime":"2025-01-15T03:00:00:Z","depth":0,"parameterNumber":2,"parameterNumberName":"U-component_of_WINDS"},"data":[0,0,0,0,0,0,0,0,0,0,0,0,0,0,0,0,0,0,0,0,0,0,0,0,0,0,0,0,0,0,0,0,0,0,0,0,0,0,0,0,0,0,0,0,0,0,0,0,0,0,0,0,0,0,0,0,0,0,-3.4282,-3.4283,0,-3.4304,-3.4304,-3.4304,-3.417,-3.4166,-3.4162,-3.4159,-3.4183,-3.4188,-3.4192,0,0,0,0,0,0,0,0,0,0,0,0,0,-3.4128,-3.4132,-3.4282,-3.4283,-3.4283,-3.4304,-3.4304,-3.4304,-3.4171,-3.4166,-3.4161,-3.4157,-3.4182,-3.4187,-3.4192,0,0,0,0,0,0,0,0,0,0,0,0,0,-3.4177,-3.4133,-3.4282,-3.4219,-3.4213,-3.4303,-3.4304,-3.4304,-3.4172,-3.4166,-3.416,-3.4155,-3.418,-3.4187,-3.4193,-3.4346,0,0,-3.4212,-3.4215,0,0,0,0,0,0,0,0,-3.4174,-3.4183,-3.4228,-3.4223,-3.4217,-3.4228,-3.4258,-3.4318,-3.4173,-3.4187,-3.4159,-3.4152,-3.4203,-3.4207,-3.4224,-3.4347,-3.4348,-3.4213,-3.4217,-3.4219,-3.4221,0,0,0,0,0,0,0,-3.4171,-3.4181,-3.4291,-3.4229,-3.4222,-3.419,-3.419,-3.4269,-3.4227,-3.4186,-3.4176,-3.418,-3.4199,-3.4218,-3.4223,-3.4349,-3.4213,-3.4218,-3.4222,-3.4224,-3.46,-3.4605,0,0,0,0,0,0,-3.4176,-3.4179,-3.429,-3.4291,-3.4181,-3.4197,-3.4198,-3.423,-3.4226,-3.422,-3.4185,-3.4174,-3.421,-3.4216,-3.4224,-3.4404,-3.4219,-3.4225,-3.4229,-3.4593,-3.4601,-3.4608,0,0,0,0,0,0,-3.4173,-3.4187,-3.4289,-3.4233,-3.4243,-3.4206,-3.4244,-3.4234,-3.4253,-3.4225,-3.4217,-3.4212,-3.4206,-3.4215,-3.4317,-3.4403,-3.4228,-3.4234,-3.4586,-3.4596,-3.4604,-3.4766,0,0,0,0,0,0,-3.4169,-3.4187,-3.4245,-3.4235,-3.4247,-3.4382,-3.4249,-3.4238,-3.4264,-3.4249,-3.4249,-3.4243,-3.4202,-3.4308,-3.4323,-3.4409,-3.4239,-3.4578,-3.459,-3.4601,-3.4752,-3.4779,-3.4802,0,0,0,0,0,-3.4164,-3.429,-3.4248,-3.4262,-3.4318,-3.4387,-3.4394,-3.4343,-3.4271,-3.4329,-3.4311,-3.4243,-3.4391,-3.432,-3.4335,-3.4424,-3.4573,-3.4587,-3.46,-3.4741,-3.4774,-3.4801,0,0,0,0,0,0,-3.4312,-3.4287,-3.4241,-3.4367,-3.438,-3.4364,-3.4436,-3.4379,-3.4414,-3.4399,-3.4335,-3.4336,-3.4449,-3.4446,-3.4368,-3.4572,-3.4469,-3.4487,-3.4571,-3.4602,-3.4626,-3.4626,-3.4244,0,0,0,0,0,-3.4359,-3.4416,-3.4392,-3.4505,-3.4514,-3.4474,-3.4502,-3.4462,-3.4473,-3.4479,-3.4468,-3.4483,-3.4532,-3.4566,-3.461,-3.475,-3.4749,-3.4819,-3.4844,-3.4864,-3.4881,-3.4956,-3.4987,-3.4653,-3.4653,-3.4653,0,0,-3.4457,-3.445,-3.4491,-3.4535,-3.454,-3.4602,-3.448,-3.455,-3.4596,-3.4489,-3.4585,-3.4578,-3.459,-3.4712,-3.4765,-3.4713,-3.4973,-3.4882,-3.4899,-3.4904,-3.4974,-3.5005,-3.5034,-3.4663,-3.4661,-3.4659,0,0,-3.4668,-3.4668,-3.4763,-3.477,-3.4779,-3.4752,-3.4775,-3.4767,-3.4758,-3.4853,-3.4774,-3.4828,-3.4914,-3.4926,-3.4943,-3.5157,-3.5096,-3.5173,-3.5304,-3.5378,-3.5404,-3.5427,-3.5505,-3.5534,-3.5189,-3.519,-3.519,0,-3.4789,-3.4878,-3.4819,-3.4895,-3.4917,-3.4822,-3.4918,-3.4928,-3.4952,-3.497,-3.491,-3.5016,-3.5017,-3.5141,-3.5194,-3.521,-3.5235,-3.5174,-3.5405,-3.5427,-3.5448,-3.5522,-3.5551,-3.5199,-3.5198,-3.5197,-3.5196,0,-3.5028,-3.5091,-3.5166,-3.5191,-3.5221,-3.5307,-3.5261,-3.5299,-3.5255,-3.5234,-3.5332,-3.533,-3.5372,-3.5397,-3.5356,-3.5516,-3.5483,-3.5416,-3.5311,-3.5491,-3.5559,-3.5586,-3.5213,-3.5209,-3.5207,-3.5204,0,0,-3.5335,-3.5324,-3.5353,-3.5363,-3.5365,-3.5413,-3.5495,-3.5534,-3.5569,-3.5588,-3.5656,-3.573,-3.5667,-3.5687,-3.5645,-3.571,-3.5881,-3.5634,-3.5633,-3.5682,-3.6059,-3.6112,-3.6146,-3.584,-3.5845,-3.5849,-3.6059,0,-3.5542,-3.568,-3.5629,-3.5771,-3.5829,-3.5739,-3.5809,-3.5819,-3.5801,-3.5849,-3.5828,-3.5883,-3.5795,-3.5806,-3.5866,-3.5848,-3.5957,-3.5832,-3.5904,-3.5907,-3.5907,-3.6181,-3.6237,-3.6436,-3.6085,-3.6089,-3.6092,0,-3.5803,-3.5832,-3.598,-3.5972,-3.5995,-3.6059,-3.6092,-3.6137,-3.6147,-3.6129,-3.6151,-3.6095,-3.6175,-3.6069,-3.6179,-3.6095,-3.6121,-3.6117,-3.6123,-3.613,-3.6013,-3.6198,-3.6497,-3.6528,-3.6134,-3.613,-3.6127,0,-3.6015,-3.609,-3.6189,-3.62,-3.6192,-3.624,-3.624,-3.6243,-3.627,-3.6298,-3.6316,-3.6353,-3.6375,-3.6406,-3.6362,-3.6288,-3.6479,-3.6369,-3.6468,-3.647,-3.6515,-3.6513,-3.6826,-3.6528,-3.6528,-3.6527,-3.6526,0,-3.6254,-3.6348,-3.6284,-3.6345,-3.6448,-3.6388,-3.6492,-3.6481,-3.6484,-3.6542,-3.6465,-3.6522,-3.6459,-3.651,-3.6476,-3.6573,-3.6583,-3.6572,-3.6562,-3.658,-3.6582,-3.6599,-3.6585,-3.6535,-3.6533,-3.6532,-3.653,0,-3.6509,-3.6469,-3.6571,-3.6555,-3.6553,-3.663,-3.6617,-3.6673,-3.6648,-3.6723,-3.6737,-3.6699,-3.6755,-3.6713,-3.6768,-3.6745,-3.6874,-3.6844,-3.6871,-3.6864,-3.6967,-3.6959,-3.7303,-3.7346,-3.7018,-3.7022,-3.7024,0,-3.6665,-3.6736,-3.6727,-3.676,-3.6764,-3.6817,-3.6844,-3.6787,-3.6819,-3.6834,-3.6889,-3.6937,-3.6973,-3.7066,-3.7044,-3.7086,-3.7057,-3.7175,-3.7063,-3.7079,-3.7062,-3.7059,-3.7067,-3.7199,-3.7202,-3.7206,-3.7208,0,-3.6947,-3.6924,-3.6965,-3.7001,-3.7035,-3.706,-3.7079,-3.711,-3.7052,-3.7092,-3.7147,-3.7174,-3.723,-3.7279,-3.7313,-3.7312,-3.7252,-3.7243,-3.7268,-3.7289,-3.7303,-3.7299,-3.6936,-3.7236,-3.7233,-3.7231,-3.723,-3.7229,-3.7159,-3.7218,-3.7221,-3.727,-3.7278,-3.7297,-3.7349,-3.7331,-3.7376,-3.7416,-3.7379,-3.7446,-3.7452,-3.7491,-3.7498,-3.755,-3.7502,-3.7538,-3.7548,-3.7559,-3.7574,-3.7293,-3.7555,-3.7554,-3.7554,-3.7553,-3.7552,0,-3.7439,-3.7436,-3.7482,-3.751,-3.7549,-3.7486,-3.7504,-3.7541,-3.76,-3.7611,-3.7647,-3.7711,-3.7758,-3.774,-3.7782,-3.7827,-3.78,-3.784,-3.7838,-3.7839,-3.7614,-3.7589,-3.7861,-3.7861,-3.7861,-3.7861,-3.7861,-3.7861,-3.759,-3.7686,-3.7663,-3.7763,-3.7759,-3.7823,-3.7839,-3.7857,-3.7865,-3.7939,-3.7978,-3.7964,-3.7964,-3.8005,-3.8046,-3.8039,-3.8059,-3.811,-3.8094,-3.7885,-3.7854,-3.7826,-3.7801,-3.8114,-3.8114,-3.8314,-3.8316,-3.8317]},{"header":{"parameterUnit":"m.s-1","parameterCategory":1,"la1":30.2991,"la2":30.254,"lo1":-89.0895,"lo2":-89.0444,"dy":0.0017,"dx":0.0017,"nx":28,"ny":28,"refTime":"2025-01-15T03:00:00:Z","depth":0,"parameterNumber":3,"parameterNumberName":"V-component_of_WINDS"},"data":[0,0,0,0,0,0,0,0,0,0,0,0,0,0,0,0,0,0,0,0,0,0,0,0,0,0,0,0,0,0,0,0,0,0,0,0,0,0,0,0,0,0,0,0,0,0,0,0,0,0,0,0,0,0,0,0,0,0,-2.9166,-2.9166,0,-2.9166,-2.9166,-2.9166,-2.9117,-2.9115,-2.9114,-2.9113,-2.9113,-2.9114,-2.9115,0,0,0,0,0,0,0,0,0,0,0,0,0,-2.9123,-2.9124,-2.9166,-2.9166,-2.9166,-2.9166,-2.9166,-2.9166,-2.9117,-2.9115,-2.9114,-2.9112,-2.9112,-2.9114,-2.9115,0,0,0,0,0,0,0,0,0,0,0,0,0,-2.9134,-2.9124,-2.9166,-2.9142,-2.9139,-2.9166,-2.9166,-2.9166,-2.9117,-2.9115,-2.9113,-2.9111,-2.9112,-2.9114,-2.9115,-2.9165,0,0,-2.9121,-2.9122,0,0,0,0,0,0,0,0,-2.9134,-2.9136,-2.9145,-2.9143,-2.9141,-2.9139,-2.915,-2.9166,-2.9118,-2.9126,-2.9113,-2.9111,-2.9123,-2.9124,-2.9128,-2.9165,-2.9165,-2.9121,-2.9122,-2.9123,-2.9123,0,0,0,0,0,0,0,-2.9133,-2.9136,-2.9166,-2.9145,-2.9143,-2.913,-2.913,-2.9153,-2.9135,-2.9125,-2.9121,-2.9122,-2.9122,-2.9127,-2.9128,-2.9165,-2.9121,-2.9123,-2.9124,-2.9124,-2.9241,-2.9243,0,0,0,0,0,0,-2.9136,-2.9135,-2.9166,-2.9166,-2.9132,-2.9133,-2.9132,-2.9142,-2.9135,-2.9132,-2.9123,-2.9119,-2.9124,-2.9126,-2.9128,-2.9184,-2.9123,-2.9125,-2.9126,-2.9239,-2.9242,-2.9244,0,0,0,0,0,0,-2.9135,-2.9139,-2.9166,-2.915,-2.9152,-2.9135,-2.9147,-2.9143,-2.9147,-2.9134,-2.913,-2.9132,-2.9123,-2.9125,-2.9156,-2.9183,-2.9125,-2.9127,-2.9237,-2.924,-2.9243,-2.9299,0,0,0,0,0,0,-2.9134,-2.9139,-2.9158,-2.915,-2.9153,-2.9195,-2.9148,-2.9144,-2.9151,-2.9146,-2.9141,-2.9138,-2.9122,-2.9153,-2.9158,-2.9185,-2.9129,-2.9234,-2.9238,-2.9242,-2.9294,-2.9303,-2.9311,0,0,0,0,0,-2.9132,-2.9174,-2.9159,-2.9163,-2.9177,-2.9196,-2.9198,-2.9178,-2.9153,-2.9172,-2.9163,-2.9138,-2.918,-2.9157,-2.9161,-2.919,-2.9233,-2.9237,-2.9242,-2.929,-2.9301,-2.9311,0,0,0,0,0,0,-2.9186,-2.9173,-2.9156,-2.9197,-2.9198,-2.9188,-2.9211,-2.919,-2.9199,-2.9194,-2.9169,-2.9168,-2.9202,-2.9199,-2.9174,-2.9237,-2.9202,-2.9207,-2.9237,-2.9248,-2.9256,-2.9256,-2.913,0,0,0,0,0,-2.9202,-2.9219,-2.9207,-2.9244,-2.9245,-2.9228,-2.9236,-2.922,-2.9221,-2.9221,-2.9215,-2.9216,-2.9229,-2.9238,-2.925,-2.9294,-2.9291,-2.9315,-2.9323,-2.933,-2.9335,-2.9357,-2.9367,-2.9259,-2.9259,-2.9259,0,0,-2.9237,-2.9231,-2.9244,-2.9254,-2.9254,-2.9271,-2.9229,-2.925,-2.9263,-2.9224,-2.9253,-2.9248,-2.9248,-2.9285,-2.9301,-2.9283,-2.9364,-2.9336,-2.9342,-2.9343,-2.9362,-2.9373,-2.9382,-2.9262,-2.9262,-2.9261,0,0,-2.9308,-2.9306,-2.9336,-2.9336,-2.9335,-2.9323,-2.933,-2.9323,-2.9318,-2.9346,-2.9317,-2.9332,-2.9355,-2.9356,-2.9359,-2.9429,-2.9406,-2.9434,-2.9477,-2.9498,-2.9506,-2.9514,-2.9537,-2.9546,-2.9439,-2.9439,-2.9439,0,-2.9351,-2.9376,-2.9354,-2.9376,-2.9381,-2.9347,-2.9376,-2.9377,-2.938,-2.9384,-2.9364,-2.9392,-2.9389,-2.9425,-2.9442,-2.9447,-2.9453,-2.9434,-2.9507,-2.9514,-2.9521,-2.9543,-2.9552,-2.9442,-2.9442,-2.9441,-2.9441,0,-2.9428,-2.9446,-2.947,-2.9473,-2.9481,-2.9507,-2.9488,-2.9498,-2.9482,-2.9472,-2.95,-2.9495,-2.9505,-2.9512,-2.9497,-2.9546,-2.9534,-2.9511,-2.9476,-2.9535,-2.9555,-2.9563,-2.9447,-2.9446,-2.9445,-2.9444,0,0,-2.9534,-2.9522,-2.9532,-2.9532,-2.9527,-2.9541,-2.9565,-2.9573,-2.9582,-2.9585,-2.9604,-2.9624,-2.9602,-2.9606,-2.959,-2.9609,-2.9663,-2.9583,-2.9582,-2.9597,-2.9715,-2.9732,-2.9742,-2.9648,-2.9649,-2.9651,-2.9714,0,-2.9601,-2.9641,-2.9621,-2.9663,-2.9679,-2.9645,-2.9666,-2.9665,-2.9657,-2.9668,-2.9658,-2.9673,-2.9643,-2.9645,-2.9662,-2.9653,-2.9686,-2.9648,-2.9664,-2.9665,-2.9664,-2.9753,-2.9771,-2.9831,-2.9722,-2.9724,-2.9725,0,-2.9686,-2.9691,-2.9735,-2.9726,-2.9732,-2.9751,-2.9756,-2.9768,-2.9766,-2.9758,-2.9762,-2.9741,-2.9763,-2.9729,-2.9758,-2.9733,-2.9738,-2.9735,-2.9736,-2.9736,-2.9698,-2.9754,-2.985,-2.9859,-2.9737,-2.9736,-2.9735,0,-2.9757,-2.9775,-2.9803,-2.9804,-2.9795,-2.9809,-2.9806,-2.9802,-2.9808,-2.9813,-2.9816,-2.9824,-2.9828,-2.9834,-2.9816,-2.9792,-2.9847,-2.9811,-2.9841,-2.9841,-2.9853,-2.9853,-2.9951,-2.9859,-2.9859,-2.9858,-2.9858,0,-2.9834,-2.9862,-2.9834,-2.9851,-2.9881,-2.9857,-2.9887,-2.988,-2.9877,-2.9892,-2.9864,-2.9879,-2.9854,-2.9866,-2.9852,-2.9878,-2.988,-2.9874,-2.987,-2.9876,-2.9877,-2.9879,-2.9873,-2.9861,-2.986,-2.986,-2.9859,0,-2.9918,-2.9901,-2.9929,-2.9917,-2.9915,-2.9937,-2.9927,-2.9942,-2.9931,-2.995,-2.9953,-2.9936,-2.9948,-2.9931,-2.9942,-2.9932,-2.9967,-2.9957,-2.9968,-2.9964,-2.9994,-2.9991,-3.0096,-3.0108,-3.001,-3.0011,-3.0012,0,-2.9968,-2.9988,-2.9978,-2.9986,-2.9984,-2.9997,-3.0002,-2.998,-2.9986,-2.9985,-3.0,-3.001,-3.0017,-3.0038,-3.0027,-3.0035,-3.0024,-3.006,-3.0025,-3.003,-3.0023,-3.0021,-3.0023,-3.0067,-3.0068,-3.0069,-3.007,0,-3.0058,-3.0048,-3.0057,-3.0062,-3.0069,-3.0073,-3.0074,-3.0082,-3.0058,-3.0067,-3.0079,-3.0084,-3.0095,-3.0105,-3.0109,-3.0106,-3.0084,-3.0081,-3.0088,-3.0094,-3.0099,-3.0095,-2.9986,-3.0079,-3.0078,-3.0077,-3.0077,-3.0076,-3.0125,-3.0141,-3.0136,-3.0146,-3.0145,-3.0146,-3.0159,-3.0149,-3.0159,-3.0165,-3.0151,-3.0166,-3.0163,-3.0167,-3.0166,-3.0177,-3.0161,-3.0172,-3.0174,-3.0177,-3.0181,-3.0098,-3.0178,-3.0178,-3.0177,-3.0177,-3.0177,0,-3.0213,-3.0208,-3.0217,-3.0219,-3.0227,-3.0205,-3.0205,-3.0213,-3.0227,-3.0225,-3.0232,-3.0245,-3.0254,-3.0243,-3.025,-3.0261,-3.0251,-3.0264,-3.0262,-3.0262,-3.0195,-3.0188,-3.0272,-3.0272,-3.0272,-3.0272,-3.0272,-3.0272,-3.0259,-3.0284,-3.0273,-3.0297,-3.0291,-3.0305,-3.0307,-3.0308,-3.0306,-3.0322,-3.0329,-3.0322,-3.0316,-3.0322,-3.0329,-3.0326,-3.0329,-3.0345,-3.0338,-3.0276,-3.0267,-3.0258,-3.0251,-3.0347,-3.0347,-3.0404,-3.0404,-3.0404]}]]